Wetbulb
72.94 69.27 68.94 68.82 56.04 53.09 48.48 53.18 53.38 53.76 54.62 59.92 62.32 60.15 58.11 58.26 57.18 51.41 66.03 70.79 71.75 72.79 74.41 74.93 76.84 75.66 75.57 75.40 74.59 74.33 74.08 73.56 72.89 72.85 71.98 72.42 73.14 73.93 74.39 74.95 74.98 75.21 75.27 75.34 75.54 74.80 75.21 75.11 75.64
70.96 68.69 68.96 64.92 53.74 49.31 50.20 53.49 51.97 53.41 55.05 62.30 62.42 61.96 59.99 58.95 64.74 64.22 63.95 69.98 72.27 72.97 73.90 74.03 76.06 75.61 76.14 74.93 74.07 73.14 73.92 74.54 73.18 73.18 71.44 70.95 71.88 73.13 73.20 73.60 74.10 74.05 74.39 74.66 74.87 74.86 74.81 74.98 74.91
70.08 68.57 63.63 56.41 53.50 50.19 47.09 52.14 52.54 54.05 53.11 56.06 57.85 58.46 58.09 59.16 64.17 63.97 66.21 69.06 71.36 71.52 73.20 74.47 76.62 75.51 75.87 75.62 74.25 73.95 73.15 73.89 73.62 72.85 70.45 70.76 71.29 71.87 72.45 72.52 72.26 72.72 73.05 73.39 73.89 74.25 74.66 74.61 74.56
63.24 64.30 61.96 52.67 47.78 52.67 48.87 48.72 53.20 53.11 51.74 56.63 57.64 55.31 59.38 62.61 64.87 65.49 67.98 69.67 71.88 71.68 73.20 75.83 76.08 75.80 75.93 75.39 73.73 73.37 73.14 73.45 72.67 71.40 70.02 70.11 70.34 69.86 71.63 71.70 71.52 71.08 71.43 71.78 72.32 73.06 73.79 74.18 73.81
62.44 59.63 51.26 46.96 47.69 50.11 50.49 51.47 51.17 48.62 49.53 53.70 55.44 53.32 54.90 60.80 67.30 67.71 67.22 70.44 71.42 71.54 73.15 73.71 75.95 75.31 74.94 74.39 73.87 73.12 73.44 73.39 72.31 70.47 69.56 69.61 69.66 69.09 68.78 69.25 69.88 69.91 70.05 70.31 70.66 71.91 73.80 73.06 73.33
57.49 56.78 48.83 43.96 45.42 48.24 47.20 48.49 49.98 48.59 48.88 49.94 50.78 51.23 52.22 57.89 61.59 67.74 67.54 68.51 71.35 70.64 72.12 73.61 76.04 76.15 76.02 74.99 74.30 73.80 73.63 73.85 72.38 70.55 69.59 69.04 69.24 68.92 68.09 67.47 67.36 67.86 68.44 68.49 68.31 70.39 71.75 73.36 73.01
56.63 52.21 48.35 45.68 45.75 46.18 48.54 49.95 47.10 47.78 47.33 48.41 50.62 49.12 50.53 55.35 58.99 63.68 68.47 68.08 68.65 70.44 70.48 71.78 73.31 74.78 76.39 76.00 75.61 74.84 73.13 73.66 72.39 70.85 70.43 69.69 68.92 68.86 68.55 67.46 66.53 66.30 66.41 66.47 66.47 68.64 70.51 71.64 72.79
55.79 53.53 49.20 45.81 46.89 45.98 50.16 51.47 51.79 49.10 47.31 52.10 52.42 47.24 46.49 54.82 59.42 63.80 67.90 66.68 63.87 63.15 62.56 70.36 71.96 73.09 73.35 72.44 74.74 75.19 74.14 73.86 72.95 72.16 71.70 71.59 70.84 70.06 69.63 69.12 68.09 67.06 66.21 66.25 66.11 66.61 68.67 69.03 70.32
57.00 49.62 44.49 46.02 48.32 47.47 50.81 49.91 51.76 52.14 49.61 50.76 51.55 51.30 54.20 57.96 60.14 61.40 61.04 59.92 59.92 60.73 59.84 58.54 61.09 68.19 71.70 72.42 73.35 74.10 74.27 74.27 74.54 73.45 73.48 72.70 69.05 67.43 68.27 69.00 69.58 69.28 67.40 66.47 66.34 66.34 66.91 68.65 68.60
51.72 46.44 47.93 51.28 50.63 48.93 51.40 50.40 50.48 49.44 48.29 47.45 49.07 52.35 55.45 55.56 55.51 55.75 55.42 55.08 54.84 54.74 56.24 56.91 58.57 66.87 67.65 72.43 71.00 70.63 71.51 70.75 70.67 70.64 69.89 70.18 69.69 67.99 68.82 69.12 70.78 69.48 68.04 67.51 67.49 67.17 66.97 66.15 63.49
52.32 47.55 51.11 53.29 53.19 51.66 51.19 49.80 51.63 48.64 45.57 46.68 47.10 49.21 51.69 51.85 51.60 51.92 52.12 51.84 51.00 51.24 51.72 53.65 56.90 61.54 69.32 69.80 69.14 69.35 69.29 69.22 69.60 69.31 68.83 69.46 69.56 69.68 67.62 64.47 64.88 63.66 66.92 63.00 64.65 64.26 63.13 60.19 58.97
48.69 51.74 53.69 54.19 53.16 52.18 50.31 50.90 47.52 47.20 46.67 49.75 49.34 49.15 49.61 48.67 49.08 49.49 49.39 49.21 49.20 48.19 47.79 49.21 51.69 54.88 57.32 65.17 66.95 66.49 66.61 66.38 66.54 67.92 66.78 66.42 66.20 66.88 66.79 66.90 67.69 64.09 62.56 62.06 60.87 60.70 60.80 59.65 58.06
49.04 50.04 51.72 51.76 51.99 50.92 51.39 48.53 46.75 45.94 48.26 49.52 50.57 49.96 47.94 47.27 47.08 47.81 48.36 47.66 46.24 46.12 46.49 47.27 47.53 47.33 49.32 52.29 52.56 53.12 62.57 63.76 63.38 63.79 64.65 64.17 64.04 63.52 64.82 64.69 66.41 66.92 67.23 64.50 62.15 58.37 56.46 55.07 55.71
50.62 50.56 49.82 50.68 50.25 50.44 48.68 47.35 47.86 46.77 48.43 48.47 49.08 46.80 45.84 46.58 46.61 45.66 46.27 45.23 44.61 45.00 46.27 47.15 48.30 47.00 47.46 47.44 48.55 48.53 48.97 50.02 52.00 56.54 58.10 55.73 57.51 58.19 59.83 61.58 63.81 65.46 66.48 65.79 65.36 63.95 61.29 57.30 53.10
49.48 45.65 46.91 47.68 48.72 48.45 49.35 44.88 45.28 47.52 48.03 46.92 46.02 43.98 45.52 45.93 45.59 44.63 45.64 44.75 44.86 45.27 47.09 47.71 48.90 48.20 46.59 46.67 47.15 47.25 47.98 49.09 47.66 48.57 48.73 48.65 49.56 49.97 49.75 51.37 54.90 58.98 62.81 63.80 63.63 63.55 63.93 62.67 59.96
44.68 43.15 39.00 45.69 48.40 49.00 46.71 39.26 46.04 46.70 46.20 44.99 44.19 42.83 44.39 44.70 44.98 43.57 45.74 46.00 44.89 45.07 45.90 46.96 49.52 47.77 46.78 46.12 46.48 46.92 47.11 46.70 46.78 46.91 47.35 48.32 49.37 48.56 47.94 48.35 48.80 50.10 56.64 60.78 59.67 59.63 59.86 60.68 61.44
41.15 35.91 38.89 43.74 48.55 47.63 44.43 40.49 45.08 46.29 46.17 44.57 42.15 42.21 43.27 42.67 42.20 43.06 44.88 44.59 45.13 45.14 44.99 45.73 45.65 45.93 46.87 46.07 46.42 46.16 46.53 45.87 45.59 45.92 46.29 47.06 48.47 48.62 46.89 47.02 47.58 48.37 48.47 51.35 57.98 58.18 57.33 57.20 58.41
37.15 37.22 39.94 40.70 45.86 45.72 43.23 42.09 44.45 45.40 45.11 44.38 42.06 41.80 42.51 42.31 43.16 44.35 45.38 44.61 45.47 44.65 44.57 44.49 45.11 45.01 45.39 45.19 45.24 45.11 45.18 45.39 45.03 44.85 45.71 46.96 46.88 47.52 46.10 46.03 46.10 47.08 47.28 47.56 48.16 53.10 55.55 55.59 56.40
41.94 39.83 38.68 41.49 47.18 44.11 42.03 42.35 44.18 44.72 43.83 42.90 42.66 41.29 41.68 42.75 43.79 44.83 45.35 44.95 44.29 44.16 44.02 43.72 45.14 43.67 44.24 43.62 42.70 42.13 42.51 43.21 44.37 45.23 47.00 47.07 47.12 47.34 45.92 45.38 45.47 45.62 45.38 46.05 46.49 47.17 48.89 51.41 53.60
43.46 40.45 39.80 43.65 46.91 43.28 42.13 42.35 44.14 45.05 44.66 44.79 43.63 41.64 41.88 41.74 42.04 43.03 44.97 44.92 45.62 45.02 44.27 43.48 44.75 44.83 43.96 44.08 43.47 42.89 41.95 43.01 44.04 45.29 45.87 46.89 46.59 46.61 46.85 45.25 44.82 44.92 44.66 44.82 45.11 45.01 45.02 47.76 51.29
42.47 40.28 40.36 39.98 44.19 44.04 41.35 39.42 41.38 43.54 43.52 44.74 44.68 44.03 43.01 42.19 41.98 42.01 42.27 43.65 43.91 44.66 43.96 44.67 44.96 44.93 44.71 44.32 44.02 43.47 42.63 42.37 42.39 42.82 44.06 45.22 45.80 46.00 45.27 44.74 44.39 43.95 43.26 43.55 43.83 44.41 43.31 42.73 45.03
39.05 45.23 44.97 43.55 39.18 33.53 40.64 30.38 36.92 39.45 40.13 42.40 42.76 41.94 42.92 41.84 41.90 42.40 41.80 42.08 42.96 43.48 44.58 44.61 45.12 45.20 46.46 43.88 42.50 40.89 40.01 39.64 40.79 41.45 42.62 43.27 44.43 44.57 45.00 44.92 44.34 43.60 43.45 42.98 43.30 45.68 43.27 42.50 41.86
42.30 45.99 43.23 42.40 37.17 33.99 35.51 32.19 34.46 39.29 37.57 39.44 40.68 42.06 42.51 42.42 43.33 43.52 43.76 43.52 43.71 43.49 43.99 44.83 45.28 45.45 44.54 43.41 42.52 41.11 40.16 40.54 41.16 41.21 40.96 41.20 42.30 43.35 44.23 44.44 43.95 43.34 42.70 42.76 42.96 42.84 42.10 42.01 41.02
46.16 42.13 40.64 39.16 35.52 28.27 33.88 34.26 33.23 36.79 39.47 39.67 40.15 41.97 43.23 42.79 43.09 43.35 42.98 43.72 43.55 44.18 44.76 45.05 44.54 44.60 44.28 43.15 42.20 40.98 39.31 39.00 39.16 39.09 38.68 39.78 40.47 41.62 42.63 43.73 43.13 43.11 43.02 42.66 43.17 43.20 42.35 42.20 41.91
42.27 35.77 29.11 28.54 28.11 28.50 37.75 34.50 35.41 39.56 40.12 41.44 41.58 41.17 42.36 42.68 42.18 41.60 41.91 42.09 42.65 43.32 44.27 45.02 44.35 43.40 43.15 42.15 41.57 40.95 39.61 38.21 37.79 38.14 38.30 38.54 39.14 39.80 40.55 41.50 41.62 42.51 44.02 43.76 42.62 42.31 42.57 42.33 41.00
39.37 36.49 29.75 25.63 26.37 29.25 37.28 31.20 34.79 38.28 40.36 40.95 42.46 42.02 42.06 41.64 40.79 41.18 42.22 42.19 42.95 43.94 43.82 43.77 43.05 41.95 42.46 41.73 40.83 39.46 38.71 38.40 38.69 38.80 38.94 38.85 39.19 40.24 41.16 41.45 41.57 41.89 42.63 43.28 42.85 43.32 42.86 41.62 42.55
37.35 32.94 36.72 31.37 30.02 26.80 31.11 33.67 37.09 38.69 38.77 39.82 39.72 40.12 39.92 40.69 40.94 42.06 42.58 42.63 42.40 42.45 42.89 42.83 42.11 41.54 41.28 39.95 38.58 37.99 38.23 38.57 38.48 38.69 38.76 39.15 39.66 42.35 42.94 41.13 40.87 41.81 42.02 42.50 42.77 43.25 43.22 42.18 42.31
37.01 39.09 32.02 30.65 24.68 23.11 28.90 29.47 32.26 34.43 35.73 37.79 38.12 38.84 40.22 41.47 41.56 41.97 42.40 42.56 42.12 41.70 42.13 41.68 41.13 40.33 39.31 38.65 38.13 39.32 37.86 38.46 38.95 38.77 38.57 38.86 39.34 40.82 41.15 40.95 40.79 40.56 41.08 41.21 40.69 41.03 42.09 42.35 42.60
34.97 32.64 33.54 32.35 29.81 24.53 22.54 28.36 35.90 35.84 36.73 36.72 36.02 38.86 40.76 41.56 41.62 41.52 41.57 41.27 41.90 41.98 40.87 40.53 39.71 38.82 38.13 38.21 37.94 37.58 37.90 38.69 38.62 38.23 38.47 39.90 40.08 39.40 40.01 40.72 40.64 40.61 40.70 40.76 39.89 39.89 40.38 40.94 42.37
36.32 34.38 34.16 28.07 27.74 27.94 24.43 27.69 36.54 37.43 38.40 39.12 38.53 40.25 39.93 41.54 41.96 41.99 40.78 40.98 40.39 39.73 39.52 38.78 38.09 37.07 37.42 37.85 37.84 37.90 38.10 38.00 37.16 37.61 39.28 38.81 39.50 40.17 40.20 40.16 39.94 39.94 40.47 40.47 39.55 39.11 39.63 39.46 40.18
MSLP
1010.61 1010.08 1010.04 1010.38 1011.59 1012.35 1012.15 1012.06 1011.01 1010.60 1010.32 1010.44 1010.64 1011.32 1012.56 1013.09 1013.53 1014.58 1014.11 1014.35 1014.71 1015.14 1015.33 1015.62 1015.68 1015.80 1015.90 1015.94 1016.08 1016.18 1016.28 1016.32 1016.38 1016.51 1016.59 1016.52 1016.48 1016.37 1016.36 1016.34 1016.32 1016.31 1016.27 1016.19 1016.09 1016.01 1016.00 1015.87 1015.88
1010.71 1010.27 1010.20 1010.72 1012.26 1012.83 1012.63 1011.67 1011.09 1010.75 1010.81 1010.82 1011.31 1011.88 1012.35 1013.72 1013.55 1014.03 1014.09 1014.23 1014.21 1014.75 1015.26 1015.61 1015.76 1015.87 1015.84 1016.00 1016.22 1016.31 1016.32 1016.41 1016.44 1016.62 1016.71 1016.68 1016.63 1016.62 1016.51 1016.61 1016.61 1016.63 1016.62 1016.59 1016.48 1016.37 1016.32 1016.19 1016.17
1010.74 1010.83 1011.24 1011.84 1012.71 1013.01 1012.36 1011.67 1011.15 1010.59 1010.38 1010.54 1011.81 1012.52 1013.20 1014.21 1013.70 1013.77 1013.70 1013.94 1014.37 1014.84 1015.24 1015.58 1015.73 1015.89 1015.96 1016.05 1016.23 1016.35 1016.40 1016.59 1016.66 1016.70 1016.75 1016.76 1016.84 1016.80 1016.70 1016.75 1016.83 1016.88 1016.85 1016.85 1016.79 1016.66 1016.58 1016.47 1016.36
1010.56 1011.21 1011.77 1012.25 1012.96 1012.50 1012.01 1011.58 1011.22 1011.00 1011.02 1011.79 1012.49 1013.68 1014.14 1014.32 1013.77 1013.52 1013.49 1013.83 1014.54 1015.13 1015.41 1015.56 1015.69 1015.82 1015.88 1016.04 1016.22 1016.36 1016.34 1016.57 1016.69 1016.75 1016.80 1016.85 1016.94 1016.97 1016.97 1016.96 1016.99 1017.00 1016.99 1016.96 1016.93 1016.82 1016.70 1016.65 1016.59
1010.53 1011.59 1012.31 1012.70 1012.53 1012.22 1011.94 1011.68 1011.63 1012.15 1012.38 1012.84 1012.92 1014.66 1014.79 1014.27 1013.84 1013.36 1013.60 1014.16 1014.72 1015.33 1015.23 1015.24 1015.25 1015.42 1015.61 1015.79 1015.99 1016.17 1016.20 1016.33 1016.63 1016.77 1016.82 1016.83 1016.90 1016.99 1017.03 1017.06 1017.06 1017.09 1017.10 1017.07 1017.08 1016.97 1016.79 1016.65 1016.60
1011.23 1011.81 1012.75 1013.06 1012.63 1012.27 1012.15 1012.13 1012.35 1012.95 1013.65 1013.89 1014.37 1015.03 1015.49 1014.85 1014.27 1013.89 1013.77 1014.09 1014.37 1014.80 1014.89 1014.96 1015.01 1015.00 1015.18 1015.26 1015.69 1016.01 1016.13 1016.27 1016.57 1016.73 1016.86 1016.87 1016.87 1016.92 1016.99 1017.07 1017.11 1017.12 1017.15 1017.17 1017.17 1017.08 1016.89 1016.75 1016.67
1011.58 1012.27 1012.68 1012.76 1012.84 1012.47 1012.29 1012.08 1012.98 1013.84 1014.24 1014.63 1014.67 1015.49 1015.96 1015.24 1014.53 1014.12 1013.85 1013.89 1014.06 1014.48 1015.32 1015.29 1015.73 1015.88 1015.87 1016.03 1015.79 1015.83 1016.19 1016.43 1016.58 1016.72 1016.78 1016.82 1016.82 1016.83 1016.84 1016.92 1016.98 1017.05 1017.10 1017.12 1017.13 1017.11 1017.06 1016.93 1016.80
1011.47 1012.26 1012.82 1012.71 1012.79 1012.74 1012.33 1012.65 1013.30 1014.02 1015.04 1015.07 1015.09 1016.02 1016.31 1015.46 1014.65 1014.19 1014.14 1014.64 1015.10 1015.55 1015.52 1015.73 1015.54 1015.78 1015.63 1015.94 1016.20 1016.34 1016.00 1016.35 1016.52 1016.57 1016.62 1016.69 1016.74 1016.75 1016.70 1016.73 1016.76 1016.87 1016.91 1016.98 1017.04 1017.07 1017.03 1016.97 1016.84
1011.08 1012.30 1013.02 1013.09 1012.77 1012.69 1012.64 1013.15 1013.75 1014.50 1015.21 1015.59 1015.94 1016.04 1015.89 1015.56 1014.99 1014.67 1015.17 1015.42 1015.53 1015.55 1016.06 1016.21 1015.90 1015.84 1015.74 1015.68 1016.09 1016.41 1016.21 1016.29 1016.43 1016.51 1016.44 1016.47 1016.64 1016.78 1016.76 1016.64 1016.50 1016.49 1016.57 1016.66 1016.78 1016.87 1016.90 1016.86 1016.86
1011.34 1012.59 1012.84 1012.68 1012.60 1012.77 1013.03 1013.51 1014.39 1015.15 1015.77 1016.50 1016.42 1016.25 1015.99 1015.76 1015.77 1015.86 1016.10 1016.31 1016.42 1016.47 1016.28 1016.24 1016.30 1015.99 1016.03 1016.42 1016.71 1016.90 1016.72 1016.81 1016.86 1016.76 1016.69 1016.73 1016.59 1016.39 1016.27 1016.37 1016.12 1016.20 1016.28 1016.31 1016.40 1016.53 1016.60 1016.64 1016.80
1011.43 1012.29 1012.53 1012.76 1012.75 1012.95 1013.38 1014.05 1014.67 1015.58 1016.38 1016.53 1016.75 1016.67 1016.59 1016.48 1016.52 1016.66 1016.89 1017.03 1017.05 1017.11 1017.04 1017.00 1016.79 1016.68 1016.81 1017.02 1017.07 1017.10 1017.12 1017.21 1017.16 1017.12 1017.10 1016.98 1016.76 1016.63 1016.71 1016.91 1016.88 1016.73 1016.49 1016.29 1016.15 1016.25 1016.35 1016.47 1016.59
1011.79 1012.22 1012.37 1012.72 1012.93 1013.19 1013.69 1014.49 1015.44 1016.13 1016.51 1016.55 1016.60 1016.73 1016.96 1017.25 1017.27 1017.29 1017.53 1017.72 1017.75 1017.93 1017.89 1017.57 1017.35 1017.28 1017.37 1017.45 1017.51 1017.56 1017.54 1017.55 1017.59 1017.28 1017.43 1017.36 1017.27 1017.06 1017.03 1017.10 1016.85 1016.72 1016.75 1016.85 1016.66 1016.29 1016.14 1016.23 1016.08
1011.72 1012.29 1012.61 1012.89 1013.18 1013.62 1014.07 1015.05 1015.87 1016.71 1016.84 1016.83 1016.84 1017.18 1017.60 1017.73 1017.79 1017.88 1017.94 1018.12 1018.32 1018.49 1018.43 1018.27 1018.06 1018.04 1017.91 1017.87 1017.89 1017.94 1017.91 1017.80 1017.76 1017.67 1017.50 1017.31 1017.28 1017.39 1017.25 1017.21 1017.03 1016.84 1016.73 1016.76 1016.69 1016.56 1016.47 1016.27 1015.87
1011.83 1012.37 1012.91 1013.25 1013.64 1014.01 1014.73 1015.66 1015.98 1016.96 1017.02 1017.30 1017.43 1017.73 1017.99 1018.07 1018.09 1018.30 1018.46 1018.71 1018.79 1018.91 1018.88 1018.71 1018.69 1018.62 1018.51 1018.62 1018.56 1018.55 1018.38 1018.34 1018.26 1018.14 1017.97 1017.80 1017.79 1017.77 1017.49 1017.32 1017.08 1016.92 1016.71 1016.61 1016.52 1016.43 1016.35 1016.35 1016.05
1012.23 1013.06 1013.53 1013.65 1013.91 1014.35 1014.98 1016.17 1015.94 1016.39 1017.03 1017.62 1017.99 1018.10 1018.26 1018.34 1018.38 1018.56 1018.75 1018.91 1018.87 1019.04 1018.92 1018.93 1018.89 1018.90 1019.10 1019.07 1019.00 1019.02 1018.90 1018.73 1018.73 1018.58 1018.32 1018.18 1018.07 1018.09 1018.02 1017.92 1017.68 1017.33 1016.99 1016.77 1016.51 1016.26 1016.04 1016.15 1015.92
1012.79 1013.46 1014.09 1013.51 1013.95 1014.43 1015.16 1015.57 1015.81 1016.35 1017.08 1017.77 1018.27 1018.39 1018.43 1018.63 1018.62 1018.71 1018.70 1018.98 1019.19 1019.20 1019.27 1019.23 1019.16 1019.32 1019.46 1019.48 1019.42 1019.34 1019.26 1019.24 1019.16 1018.96 1018.73 1018.48 1018.30 1018.12 1018.15 1018.12 1017.91 1017.54 1017.22 1016.98 1016.87 1016.61 1016.39 1016.29 1016.13
1013.42 1013.69 1013.96 1013.92 1014.02 1014.61 1015.36 1015.65 1015.97 1016.30 1016.87 1017.67 1018.13 1018.44 1018.51 1018.77 1018.86 1018.82 1018.81 1018.97 1019.10 1019.19 1019.38 1019.45 1019.44 1019.62 1019.72 1019.64 1019.61 1019.61 1019.48 1019.48 1019.41 1019.13 1019.01 1018.71 1018.51 1018.22 1018.16 1018.16 1017.90 1017.53 1017.44 1017.30 1017.12 1016.91 1016.75 1016.47 1016.14
1013.69 1013.86 1013.67 1013.88 1013.94 1014.44 1015.18 1015.42 1015.95 1016.03 1016.48 1017.18 1017.82 1018.23 1018.45 1018.68 1018.84 1018.76 1018.82 1018.94 1018.93 1019.24 1019.40 1019.55 1019.60 1019.70 1019.76 1019.71 1019.74 1019.79 1019.74 1019.59 1019.51 1019.34 1019.06 1018.78 1018.58 1018.34 1018.20 1018.09 1017.85 1017.64 1017.66 1017.36 1017.09 1016.98 1016.69 1016.51 1016.21
1013.41 1013.71 1013.90 1013.54 1013.44 1014.14 1014.72 1015.08 1015.34 1015.76 1016.34 1016.96 1017.47 1017.90 1018.15 1018.27 1018.39 1018.51 1018.62 1018.91 1018.99 1019.31 1019.38 1019.54 1019.64 1019.75 1019.74 1019.84 1019.97 1019.96 1020.04 1019.70 1019.58 1019.27 1018.96 1018.82 1018.62 1018.35 1018.19 1018.04 1017.65 1017.38 1017.50 1017.34 1017.07 1016.87 1016.70 1016.51 1016.15
1013.32 1013.69 1013.91 1014.03 1014.07 1014.76 1014.95 1014.76 1014.47 1014.96 1015.24 1015.79 1016.67 1017.35 1017.77 1018.17 1018.55 1018.57 1018.65 1018.67 1018.91 1019.19 1019.41 1019.49 1019.40 1019.47 1019.58 1019.58 1019.72 1019.87 1019.91 1019.77 1019.56 1019.25 1019.02 1018.79 1018.53 1018.20 1018.04 1017.82 1017.77 1017.38 1017.13 1017.01 1016.88 1016.78 1016.77 1016.58 1016.19
1013.55 1014.06 1014.35 1014.67 1014.73 1014.78 1015.05 1014.82 1014.31 1014.46 1015.09 1015.83 1016.46 1016.82 1017.26 1017.71 1018.20 1018.50 1018.50 1018.68 1018.78 1018.94 1019.18 1019.31 1019.20 1019.29 1019.34 1019.55 1019.70 1019.71 1019.66 1019.69 1019.67 1019.27 1019.00 1018.57 1018.29 1018.05 1017.79 1017.50 1017.26 1017.15 1017.02 1016.79 1016.45 1016.38 1016.43 1016.42 1016.11
1014.09 1014.36 1014.71 1015.06 1015.54 1015.94 1015.74 1015.97 1014.88 1014.80 1015.38 1016.01 1016.45 1016.74 1017.02 1017.51 1017.67 1017.90 1018.32 1018.76 1018.90 1019.06 1018.94 1019.16 1019.20 1019.21 1019.23 1019.46 1019.62 1019.88 1020.03 1020.10 1019.67 1019.19 1018.74 1018.39 1017.94 1017.63 1017.32 1017.00 1016.77 1016.63 1016.37 1016.20 1015.96 1015.72 1015.62 1015.79 1015.95
1014.36 1014.70 1015.23 1015.74 1016.46 1016.85 1016.26 1016.84 1015.17 1015.20 1015.83 1016.09 1016.28 1016.53 1016.76 1016.97 1017.20 1017.65 1018.00 1018.30 1018.43 1018.54 1018.84 1018.91 1018.98 1019.05 1019.11 1019.26 1019.35 1019.67 1019.85 1019.65 1019.18 1018.94 1018.65 1018.33 1017.90 1017.50 1017.16 1016.87 1016.58 1016.39 1016.06 1015.75 1015.63 1015.47 1015.28 1014.96 1014.98
1014.67 1015.18 1015.82 1016.44 1017.29 1017.65 1016.09 1016.40 1015.40 1015.15 1014.81 1015.35 1015.76 1016.07 1016.42 1016.83 1017.07 1017.15 1017.45 1017.76 1018.05 1018.37 1018.67 1018.73 1018.79 1018.92 1018.94 1019.09 1019.10 1019.21 1019.39 1019.30 1019.16 1018.93 1018.73 1018.27 1017.85 1017.50 1017.05 1016.63 1016.35 1015.96 1015.62 1015.32 1015.04 1014.82 1014.78 1014.66 1014.29
1015.24 1016.18 1017.21 1018.01 1018.48 1017.65 1015.99 1016.04 1014.65 1014.24 1014.10 1014.26 1014.93 1015.54 1015.92 1016.41 1016.85 1017.39 1017.64 1017.88 1018.14 1018.32 1018.49 1018.60 1018.68 1018.84 1018.81 1018.80 1018.76 1018.76 1018.85 1018.89 1018.95 1018.75 1018.47 1018.13 1017.70 1017.25 1016.85 1016.46 1016.01 1015.63 1015.25 1014.93 1014.47 1014.24 1014.03 1013.89 1013.80
1015.83 1016.51 1017.51 1018.10 1018.30 1017.53 1016.19 1015.57 1014.86 1014.56 1014.18 1014.21 1014.27 1015.00 1015.93 1016.57 1016.90 1017.36 1017.43 1017.56 1017.85 1017.96 1018.14 1018.29 1018.55 1018.70 1018.53 1018.48 1018.59 1018.59 1018.53 1018.49 1018.37 1018.16 1017.94 1017.68 1017.37 1016.96 1016.56 1016.17 1015.83 1015.47 1015.02 1014.66 1014.21 1013.74 1013.37 1013.14 1012.81
1016.12 1016.58 1017.12 1017.93 1017.95 1017.87 1016.47 1015.69 1015.12 1014.67 1014.47 1014.57 1015.01 1015.73 1016.40 1016.76 1016.87 1017.12 1017.17 1017.36 1017.64 1017.76 1017.90 1018.16 1018.32 1018.39 1018.37 1018.45 1018.43 1018.36 1018.26 1018.17 1018.06 1017.76 1017.50 1017.16 1016.78 1016.37 1015.91 1015.57 1015.12 1014.81 1014.46 1014.18 1013.82 1013.37 1012.77 1012.34 1011.78
1016.38 1016.90 1017.53 1018.44 1019.07 1018.78 1017.32 1016.39 1015.70 1015.12 1015.06 1015.32 1015.78 1016.19 1016.42 1016.63 1016.84 1016.99 1017.07 1017.19 1017.39 1017.55 1017.76 1017.98 1018.14 1018.26 1018.31 1018.27 1018.23 1018.17 1018.14 1017.97 1017.72 1017.37 1017.03 1016.67 1016.24 1015.78 1015.33 1015.03 1014.74 1014.38 1014.00 1013.60 1013.23 1012.86 1012.45 1011.90 1011.18
1016.92 1017.08 1017.68 1018.59 1019.24 1019.46 1018.79 1017.39 1015.70 1015.54 1015.47 1015.70 1015.98 1016.17 1016.18 1016.30 1016.33 1016.65 1016.76 1017.09 1017.35 1017.59 1017.86 1018.07 1018.17 1018.26 1018.28 1018.19 1018.15 1018.11 1017.96 1017.67 1017.35 1017.09 1016.72 1016.27 1015.79 1015.44 1015.12 1014.74 1014.28 1013.86 1013.35 1012.90 1012.49 1012.08 1011.64 1011.21 1010.46
1016.58 1016.95 1017.60 1019.16 1019.70 1019.74 1019.27 1017.64 1016.39 1015.77 1015.61 1015.73 1016.01 1015.98 1015.93 1016.18 1016.65 1016.93 1017.16 1017.37 1017.68 1017.97 1018.11 1018.17 1018.21 1018.31 1018.31 1018.16 1018.09 1017.91 1017.63 1017.45 1017.23 1016.86 1016.39 1016.00 1015.53 1015.07 1014.54 1013.99 1013.42 1012.98 1012.48 1011.93 1011.64 1011.30 1010.85 1010.41 1009.76
Wind_Speed
8 10 2 2 7 6 4 3 3 7 7 13 15 15 12 4 6 6 1 12 15 12 9 6 7 8 7 10 10 10 9 8 9 10 9 9 9 11 11 11 12 12 12 11 12 10 9 10 11
4 7 4 2 7 5 3 2 6 3 5 16 15 14 15 10 6 6 4 13 15 13 9 7 8 5 7 10 10 7 7 9 9 9 9 8 9 9 9 10 11 11 11 11 11 10 8 7 8
3 3 3 5 2 2 1 3 4 4 10 6 7 7 5 4 5 4 5 12 10 11 10 9 10 5 7 9 9 6 6 8 8 8 7 7 8 8 7 8 9 9 9 9 10 9 9 6 6
1 4 4 5 6 2 5 3 2 3 8 10 8 8 4 1 2 7 7 15 14 10 9 10 11 8 8 8 7 5 4 6 6 6 6 6 7 7 7 7 7 7 6 7 7 8 6 6 2
4 3 4 4 5 5 5 5 9 11 6 11 4 3 2 9 7 5 8 14 14 9 9 9 14 12 10 9 7 6 2 7 5 4 4 4 4 5 5 5 5 6 6 6 7 6 7 3 3
5 3 4 2 4 4 4 5 8 5 5 5 7 5 1 8 7 8 7 13 12 10 10 10 13 14 14 14 11 8 3 6 5 3 2 1 1 2 2 3 4 4 4 5 5 5 4 4 3
3 3 1 6 6 4 3 3 6 5 7 6 3 4 0 8 8 8 7 9 11 6 4 2 2 1 5 5 9 8 3 5 4 2 2 2 2 2 2 2 1 1 2 3 3 2 3 5 5
4 4 4 3 3 2 2 4 6 7 3 3 3 3 0 6 10 7 8 11 12 10 10 5 5 6 5 3 5 4 7 5 4 4 4 6 7 7 6 5 4 4 2 1 2 3 2 2 4
3 6 4 3 2 4 4 3 6 4 8 6 3 3 2 6 5 12 9 12 11 11 9 6 5 3 6 3 6 5 4 2 4 4 7 6 3 5 7 7 9 9 6 3 3 4 5 6 6
5 4 1 2 2 3 3 7 2 5 4 5 4 5 7 8 9 10 8 8 9 8 9 10 7 10 7 9 8 5 7 5 4 5 6 4 4 5 7 9 13 10 8 7 7 7 8 7 3
2 4 4 3 3 4 4 3 3 7 2 2 6 3 4 8 9 9 7 7 7 6 8 9 8 10 9 7 4 3 4 3 4 5 5 5 4 4 4 1 2 3 6 3 5 5 4 5 4
5 4 4 3 2 2 1 6 4 3 2 7 5 4 6 8 7 8 9 8 8 8 8 9 9 8 8 4 4 4 3 3 2 4 5 3 3 5 5 3 5 4 3 5 5 3 5 6 6
4 4 5 4 4 4 6 3 6 5 5 6 3 8 8 7 7 6 8 8 8 9 8 9 9 8 7 7 5 5 5 4 5 5 6 5 5 4 3 3 3 3 2 2 4 3 4 5 6
3 6 7 4 4 3 5 3 3 6 7 6 6 7 7 7 6 6 8 7 8 7 7 7 9 8 8 7 7 5 5 5 5 5 5 7 5 5 5 6 6 5 3 3 3 3 4 5 4
6 4 3 5 6 5 7 1 8 9 9 9 8 7 6 6 7 6 6 6 8 5 7 7 7 8 9 6 6 5 5 5 5 5 7 8 6 6 5 4 5 5 4 5 4 5 4 4 4
3 4 3 6 9 3 7 8 4 10 10 9 9 8 8 6 7 6 6 7 7 7 7 7 7 7 8 7 6 5 6 5 5 5 5 7 7 6 6 5 5 5 5 4 4 4 4 4 4
3 4 6 2 8 6 5 5 5 9 10 10 9 9 8 7 5 6 6 6 6 7 7 7 8 7 7 7 5 6 7 5 4 5 5 7 6 6 4 4 4 6 4 4 3 3 2 3 4
3 3 2 5 8 6 7 10 7 12 10 10 9 9 9 9 9 8 7 5 5 4 6 6 5 6 5 4 4 3 4 4 4 4 4 7 5 6 4 4 5 5 4 5 4 3 2 3 4
2 1 4 2 3 5 8 8 10 12 7 9 9 10 9 10 8 8 7 7 5 3 5 6 6 2 2 1 1 1 3 3 3 5 7 7 6 7 7 5 5 5 4 5 5 3 3 3 2
3 3 6 3 2 1 6 13 11 15 15 14 10 9 10 7 8 7 8 7 5 5 4 4 4 2 0 1 1 0 1 3 3 4 5 6 7 7 7 6 6 7 4 6 5 4 2 2 2
3 1 3 2 2 4 3 9 6 2 5 7 6 7 7 13 11 9 9 9 6 5 5 5 3 1 2 4 2 3 3 3 3 3 4 4 7 7 7 7 6 6 4 5 5 5 5 4 3
2 1 2 4 5 3 3 7 7 4 5 8 8 7 8 9 7 7 6 6 7 4 3 4 3 3 3 3 2 3 2 3 4 3 3 5 7 7 7 7 7 7 5 6 6 6 5 4 4
4 1 1 1 1 4 4 2 8 7 4 8 9 9 8 9 10 10 10 9 7 6 6 3 2 3 4 4 4 2 4 4 3 4 7 6 6 7 7 7 7 7 5 6 6 6 6 5 4
3 2 3 2 3 2 7 8 6 5 7 6 6 9 10 8 8 7 7 7 4 4 4 3 1 4 5 5 6 5 6 7 5 4 4 5 4 4 6 8 7 7 7 6 6 6 7 7 6
3 5 4 3 2 7 4 5 8 2 3 5 13 11 10 9 8 8 8 6 5 6 4 3 4 6 6 6 6 6 6 5 5 5 4 6 4 4 6 7 6 6 11 11 7 6 7 6 5
4 6 5 4 3 4 6 5 3 2 5 7 7 9 8 7 7 8 8 6 7 6 5 4 4 5 6 6 6 5 5 3 4 4 5 4 4 5 6 6 6 7 8 9 9 8 8 7 8
1 2 4 1 2 2 4 1 3 4 4 6 8 8 7 7 7 8 7 7 7 5 6 5 5 5 5 5 4 5 5 6 5 7 6 5 6 7 10 7 7 9 9 9 11 10 12 11 9
2 2 3 3 2 4 5 1 2 4 4 3 6 7 7 6 7 7 7 7 5 5 4 3 2 3 3 5 4 4 6 6 7 6 7 7 7 9 10 9 9 8 9 9 8 9 11 12 11
1 2 2 3 6 5 1 7 5 1 1 4 2 5 8 9 9 8 8 3 3 1 3 3 4 4 6 6 5 6 6 7 7 6 7 9 8 6 7 11 13 15 15 13 11 12 14 16 16
1 3 5 6 5 1 5 7 2 8 7 7 5 4 3 5 2 7 3 3 3 3 3 4 5 5 5 5 5 7 7 6 6 6 9 7 11 11 14 15 14 15 16 13 12 14 14 16 17
Wind_Direction
321 306 272 45 54 61 45 36 122 37 17 80 73 77 88 62 72 139 198 127 127 133 133 130 114 110 113 113 91 84 68 75 70 62 50 50 53 53 73 63 71 61 62 59 60 74 55 78 82
323 314 30 51 77 52 10 55 61 60 50 98 88 96 66 71 72 106 79 134 139 138 137 136 127 116 129 107 89 69 70 49 67 61 46 49 52 51 61 70 62 61 58 55 52 57 53 77 96
280 204 64 80 91 133 144 28 133 41 36 20 115 57 64 337 39 109 162 132 119 134 133 141 132 108 109 103 99 87 63 53 53 52 51 57 51 45 51 62 58 54 56 54 48 43 45 58 101
300 22 11 102 135 359 100 360 20 48 41 44 119 65 35 353 258 163 155 112 105 110 125 133 132 117 104 104 101 85 77 83 64 59 55 56 54 49 49 46 42 43 44 49 39 32 31 52 92
41 72 61 76 111 99 48 16 40 50 72 30 34 54 43 341 334 91 129 112 116 136 146 148 156 155 150 141 144 142 176 121 97 76 67 64 60 50 43 37 40 36 34 35 27 21 25 47 9
11 100 71 149 116 89 53 52 76 40 61 23 58 83 8 309 360 325 107 124 136 150 160 172 175 170 170 165 163 173 206 128 134 119 94 58 63 70 47 40 34 31 23 23 17 16 19 30 354
107 74 154 142 135 61 67 47 56 91 39 12 330 86 188 335 305 314 121 119 136 120 56 113 72 220 179 195 168 165 128 129 136 146 234 253 247 231 215 190 131 70 32 16 5 4 15 7 353
101 90 8 20 143 124 51 88 121 91 30 211 45 90 358 264 303 301 70 64 72 75 53 114 176 201 189 180 187 168 133 157 177 201 240 261 262 253 241 217 209 198 197 296 324 309 284 310 321
77 57 23 36 106 158 82 95 29 75 97 48 72 113 233 321 15 55 60 57 49 35 58 42 30 244 158 185 159 189 136 185 219 251 256 243 248 265 264 235 228 209 214 221 253 269 271 259 271
84 93 113 356 52 116 90 106 118 106 82 49 64 14 25 26 47 61 65 62 55 34 15 21 33 39 66 59 52 39 40 34 43 34 32 15 295 257 234 226 204 208 213 216 235 246 251 255 237
53 153 151 30 55 43 102 88 68 125 91 158 135 119 54 49 47 63 56 63 64 36 27 14 34 48 67 68 53 43 37 29 30 33 25 6 359 13 32 304 291 307 262 233 230 241 234 237 230
93 80 151 132 68 5 44 121 73 67 141 140 107 100 93 74 67 74 74 70 64 51 29 19 28 42 47 68 61 59 50 41 46 63 50 43 14 13 12 2 348 331 292 296 300 255 237 243 239
108 158 95 107 92 92 81 56 137 133 138 125 124 82 98 95 79 75 94 85 76 59 38 26 35 37 37 45 43 40 27 28 23 25 24 38 36 27 18 351 340 352 10 9 353 352 312 278 249
130 147 138 151 134 88 113 136 93 201 169 162 136 106 90 101 102 69 78 92 83 73 47 40 42 41 41 40 38 26 33 25 35 26 25 27 30 10 12 2 357 347 357 341 332 331 334 326 321
126 115 157 194 177 184 127 198 231 174 161 174 156 140 117 109 93 91 99 106 119 104 77 53 58 47 41 34 38 31 20 28 29 23 20 16 24 17 15 8 355 340 326 338 340 339 335 326 325
165 123 165 231 168 219 117 262 194 160 159 185 169 154 157 158 133 110 89 101 100 97 91 71 59 47 47 42 33 26 18 22 14 16 7 7 6 21 7 359 343 331 343 322 329 329 326 324 325
330 229 209 355 183 148 163 254 188 178 171 192 174 170 166 147 132 133 113 91 91 112 106 80 67 62 51 42 33 27 12 12 358 9 356 341 346 348 15 345 325 328 335 333 312 308 297 307 312
221 240 291 194 217 165 199 254 197 194 179 194 170 180 171 159 172 151 133 118 104 101 98 95 79 68 59 48 30 16 4 341 343 336 322 320 319 324 346 321 320 327 325 318 321 295 287 266 278
185 239 274 231 240 160 226 248 219 205 187 191 196 180 178 178 178 156 150 156 192 115 111 108 94 58 75 25 31 349 326 332 330 334 331 325 330 326 321 302 305 312 305 276 292 278 291 303 272
17 339 294 27 112 128 257 257 248 188 198 191 184 177 185 150 161 167 170 182 188 181 155 127 112 86 24 43 355 60 314 284 267 290 305 305 304 307 301 292 286 285 276 293 292 268 283 265 251
14 31 315 232 294 280 313 299 301 185 136 163 193 186 180 164 172 185 190 198 189 204 178 177 164 82 36 45 19 345 344 340 335 306 285 278 298 298 300 297 286 280 274 264 256 247 233 241 282
259 13 35 3 45 245 55 282 308 167 151 174 194 186 185 168 181 188 178 183 195 196 135 118 75 25 23 15 355 336 267 284 254 252 260 289 285 288 288 285 283 277 270 265 253 255 225 187 219
185 63 12 344 326 2 289 155 274 91 176 205 207 202 205 187 175 155 171 167 165 147 139 138 71 1 325 303 318 295 280 255 271 291 302 300 297 301 302 298 296 289 273 264 260 271 250 218 201
157 342 358 52 78 357 238 161 276 206 201 200 201 200 194 180 181 183 160 147 144 112 124 123 61 283 290 292 291 280 283 292 306 303 305 299 294 291 296 298 291 286 291 277 271 267 261 259 251
79 60 349 354 5 229 321 116 249 202 65 201 192 194 190 182 174 169 157 162 161 159 186 219 238 268 278 280 292 295 296 303 296 295 287 301 292 289 282 283 285 291 291 282 268 262 258 248 231
192 154 155 234 214 262 326 244 281 10 25 14 179 176 165 171 165 173 179 173 180 194 212 232 263 269 279 300 307 310 310 296 289 285 293 285 276 279 277 279 296 294 293 294 288 282 268 248 249
276 179 175 160 271 94 237 109 334 43 28 56 77 91 132 162 173 183 189 183 200 220 232 231 247 280 314 310 305 307 306 312 299 295 286 277 272 283 293 279 273 281 282 291 296 293 283 261 250
160 247 60 11 255 283 309 29 252 259 216 114 109 142 176 186 187 195 202 202 212 215 222 270 339 319 294 312 318 317 311 306 295 288 280 277 277 284 292 300 302 297 291 283 289 297 295 282 265
107 285 206 139 155 180 262 278 294 129 277 176 213 235 214 201 201 207 212 210 194 248 16 13 350 336 338 342 332 329 307 292 288 290 287 292 308 312 313 310 304 299 291 281 277 280 281 282 284
190 196 148 124 276 237 144 271 335 121 111 127 153 162 147 180 231 249 200 197 14 24 9 356 348 356 339 334 323 306 302 318 316 303 306 311 313 306 298 296 296 294 291 282 281 283 282 279 279